| time (UTC) | temp F | wind direction | speed MPH | gust MPH | rain 1hr in | rain 24hr in | rain mn in | humidity % | barometer mb |
| 20260903052918 | 80 | 261 | 0.0 | 0.0 | 0.00 | 0.00 | 0.00 | 79 | 1023.0 |
| 20260903052414 | 80 | 261 | 0.0 | 0.0 | 0.00 | 0.00 | 0.00 | 78 | 1023.0 |
| 20260903051909 | 80 | 261 | 0.0 | 0.0 | 0.00 | 0.00 | 0.00 | 78 | 1023.0 |
| 20260903051405 | 80 | 261 | 0.0 | 0.0 | 0.00 | 0.00 | 0.00 | 78 | 1023.0 |
| 20260903050900 | 80 | 261 | 0.0 | 0.0 | 0.00 | 0.00 | 0.00 | 78 | 1022.9 |
| 20260903050358 | 80 | 261 | 0.0 | 0.0 | 0.00 | 0.00 | 0.00 | 78 | 1023.0 |
| 20260903045853 | 80 | 261 | 0.0 | 0.0 | 0.00 | 0.00 | 0.00 | 78 | 1023.0 |
| 20260903045349 | 80 | 261 | 0.0 | 0.0 | 0.00 | 0.00 | 0.00 | 77 | 1023.1 |
| 20260903044846 | 80 | 261 | 0.0 | 0.0 | 0.00 | 0.00 | 0.00 | 77 | 1023.0 |
| 20260903044346 | 81 | 261 | 0.0 | 0.0 | 0.00 | 0.00 | 0.00 | 77 | 1022.7 |
| 20260903043843 | 81 | 261 | 0.0 | 0.0 | 0.00 | 0.00 | 0.00 | 77 | 1022.7 |
| 20260903043337 | 81 | 261 | 0.0 | 0.0 | 0.00 | 0.00 | 0.00 | 77 | 1023.1 |
| 20260903042836 | 81 | 261 | 0.0 | 0.0 | 0.00 | 0.00 | 0.00 | 76 | 1022.9 |
| 20260903042331 | 81 | 261 | 0.0 | 0.0 | 0.00 | 0.00 | 0.00 | 76 | 1023.2 |
| 20260903041827 | 81 | 261 | 0.0 | 0.0 | 0.00 | 0.00 | 0.00 | 76 | 1023.1 |
| 20260903041323 | 81 | 261 | 0.0 | 0.0 | 0.00 | 0.00 | 0.00 | 75 | 1023.1 |
| 20260903040819 | 81 | 261 | 0.0 | 0.0 | 0.00 | 0.00 | 0.00 | 75 | 1023.0 |
| 20260903040317 | 81 | 261 | 0.0 | 0.0 | 0.00 | 0.00 | 0.00 | 75 | 1023.1 |
| 20260903035814 | 81 | 261 | 0.0 | 0.0 | 0.00 | 0.00 | 0.00 | 75 | 1023.0 |
| 20260903035309 | 81 | 261 | 0.0 | 0.0 | 0.00 | 0.00 | 0.00 | 75 | 1023.2 |
| 20260903034804 | 82 | 261 | 0.0 | 0.0 | 0.00 | 0.00 | 0.00 | 75 | 1023.0 |
| 20260903034259 | 82 | 261 | 0.0 | 0.0 | 0.00 | 0.00 | 0.00 | 75 | 1022.9 |
| 20260903033756 | 82 | 261 | 0.0 | 0.0 | 0.00 | 0.00 | 0.00 | 74 | 1023.1 |
| 20260903033250 | 82 | 261 | 0.0 | 0.0 | 0.00 | 0.00 | 0.00 | 74 | 1023.0 |
| 20260903032744 | 82 | 261 | 0.0 | 0.0 | 0.00 | 0.00 | 0.00 | 74 | 1023.1 |
| 20260903032240 | 82 | 261 | 0.0 | 0.0 | 0.00 | 0.00 | 0.00 | 73 | 1023.2 |
| 20260903031736 | 82 | 261 | 0.0 | 0.0 | 0.00 | 0.00 | 0.00 | 72 | 1023.0 |
| 20260903031229 | 82 | 261 | 0.0 | 0.0 | 0.00 | 0.00 | 0.00 | 73 | 1023.0 |
| 20260903030726 | 83 | 261 | 0.0 | 0.0 | 0.00 | 0.00 | 0.00 | 72 | 1023.2 |
| 20260903030221 | 83 | 261 | 0.0 | 0.0 | 0.00 | 0.00 | 0.00 | 72 | 1023.2 |
| 20260903025716 | 83 | 261 | 0.0 | 0.0 | 0.00 | 0.00 | 0.00 | 72 | 1023.1 |
| 20260903025212 | 83 | 261 | 0.0 | 0.0 | 0.00 | 0.00 | 0.00 | 71 | 1023.1 |
| 20260903024711 | 83 | 261 | 0.0 | 0.0 | 0.00 | 0.00 | 0.00 | 71 | 1023.2 |
| 20260903024211 | 83 | 261 | 0.0 | 0.0 | 0.00 | 0.00 | 0.00 | 71 | 1023.4 |
| 20260903023707 | 83 | 261 | 0.0 | 0.0 | 0.00 | 0.00 | 0.00 | 70 | 1023.1 |
| 20260903023202 | 83 | 261 | 0.0 | 0.0 | 0.00 | 0.00 | 0.00 | 70 | 1023.1 |
| 20260903022702 | 84 | 261 | 0.0 | 0.0 | 0.00 | 0.00 | 0.00 | 70 | 1023.1 |
| 20260903022201 | 84 | 261 | 0.0 | 0.0 | 0.00 | 0.00 | 0.00 | 69 | 1023.0 |
| 20260903021700 | 84 | 261 | 0.0 | 0.0 | 0.00 | 0.00 | 0.00 | 69 | 1023.3 |
| 20260903021156 | 84 | 261 | 0.0 | 0.0 | 0.00 | 0.00 | 0.00 | 68 | 1023.1 |
| 20260903020651 | 84 | 261 | 0.0 | 0.0 | 0.00 | 0.00 | 0.00 | 68 | 1023.3 |
| 20260903020151 | 84 | 261 | 0.0 | 0.0 | 0.00 | 0.00 | 0.00 | 68 | 1023.1 |
| 20260903015646 | 84 | 261 | 0.0 | 0.0 | 0.00 | 0.00 | 0.00 | 67 | 1022.9 |
| 20260903015142 | 85 | 261 | 0.0 | 0.0 | 0.00 | 0.00 | 0.00 | 66 | 1022.9 |
| 20260903014636 | 85 | 261 | 0.0 | 0.0 | 0.00 | 0.00 | 0.00 | 66 | 1022.7 |
| 20260903014136 | 85 | 261 | 0.0 | 0.0 | 0.00 | 0.00 | 0.00 | 65 | 1022.9 |
| 20260903013631 | 86 | 261 | 0.0 | 0.0 | 0.00 | 0.00 | 0.00 | 64 | 1023.2 |
| 20260903013131 | 86 | 260 | 0.0 | 0.0 | 0.00 | 0.00 | 0.00 | 64 | 1022.7 |
| 20260903012630 | 87 | 260 | 0.0 | 0.0 | 0.00 | 0.00 | 0.00 | 62 | 1022.5 |
| 20260903012129 | 87 | 258 | 0.0 | 0.0 | 0.00 | 0.00 | 0.00 | 61 | 1022.6 |
| 20260903011629 | 87 | 258 | 0.0 | 0.0 | 0.00 | 0.00 | 0.00 | 60 | 1022.7 |
| 20260903011123 | 88 | 258 | 0.0 | 0.0 | 0.00 | 0.00 | 0.00 | 60 | 1022.5 |
| 20260903010619 | 88 | 245 | 0.0 | 0.0 | 0.00 | 0.00 | 0.00 | 59 | 1022.4 |
| 20260903010117 | 87 | 245 | 0.0 | 0.0 | 0.00 | 0.00 | 0.00 | 59 | 1022.5 |
| 20260903005612 | 87 | 245 | 0.0 | 0.0 | 0.00 | 0.00 | 0.00 | 59 | 1022.5 |
| 20260903005108 | 88 | 245 | 0.0 | 0.0 | 0.00 | 0.00 | 0.00 | 58 | 1022.3 |
| 20260903004608 | 88 | 244 | 0.0 | 0.0 | 0.00 | 0.00 | 0.00 | 58 | 1022.3 |
| 20260903004103 | 87 | 245 | 0.0 | 0.0 | 0.00 | 0.00 | 0.00 | 59 | 1022.2 |
| 20260903003558 | 87 | 257 | 0.0 | 0.0 | 0.00 | 0.00 | 0.00 | 59 | 1022.1 |
| 20260903003053 | 87 | 257 | 0.0 | 0.0 | 0.00 | 0.00 | 0.00 | 58 | 1022.1 |
| 20260903002548 | 88 | 257 | 0.0 | 0.0 | 0.00 | 0.00 | 0.00 | 59 | 1022.0 |
| 20260903002043 | 88 | 257 | 0.0 | 0.0 | 0.00 | 0.00 | 0.00 | 58 | 1022.1 |
| 20260903001538 | 88 | 257 | 0.0 | 0.0 | 0.00 | 0.00 | 0.00 | 58 | 1021.9 |
| 20260903001037 | 88 | 257 | 0.0 | 0.0 | 0.00 | 0.00 | 0.00 | 59 | 1021.9 |
| 20260903000533 | 89 | 257 | 0.0 | 0.0 | 0.00 | 0.00 | 0.00 | 58 | 1021.7 |
| 20260903000032 | 89 | 258 | 0.0 | 0.0 | 0.00 | 0.00 | 0.00 | 57 | 1021.9 |
| 20260902235531 | 89 | 258 | 0.0 | 0.0 | 0.00 | 0.00 | 0.00 | 56 | 1021.8 |
| 20260902235026 | 90 | 259 | 0.0 | 0.0 | 0.00 | 0.00 | 0.00 | 54 | 1021.8 |
| 20260902234521 | 90 | 259 | 0.0 | 0.0 | 0.00 | 0.00 | 0.00 | 54 | 1021.6 |
| 20260902234019 | 91 | 259 | 0.0 | 0.0 | 0.00 | 0.00 | 0.00 | 53 | 1021.7 |
| 20260902233514 | 91 | 260 | 0.0 | 0.0 | 0.00 | 0.00 | 0.00 | 52 | 1021.8 |
| 20260902233008 | 91 | 260 | 0.0 | 0.0 | 0.00 | 0.00 | 0.00 | 51 | 1021.8 |
| 20260902232502 | 91 | 260 | 0.0 | 0.0 | 0.00 | 0.00 | 0.00 | 51 | 1021.7 |
| 20260902231956 | 92 | 260 | 0.0 | 0.0 | 0.00 | 0.00 | 0.00 | 50 | 1021.8 |
| 20260902231451 | 92 | 260 | 0.0 | 0.0 | 0.00 | 0.00 | 0.00 | 49 | 1021.7 |
| 20260902230946 | 92 | 259 | 0.0 | 0.0 | 0.00 | 0.00 | 0.00 | 49 | 1021.9 |
| 20260902230445 | 92 | 259 | 0.0 | 0.0 | 0.00 | 0.00 | 0.00 | 50 | 1021.8 |
| 20260902225939 | 93 | 259 | 0.0 | 0.0 | 0.00 | 0.00 | 0.00 | 49 | 1021.6 |
| 20260902225435 | 93 | 259 | 0.0 | 0.0 | 0.00 | 0.00 | 0.00 | 49 | 1021.7 |
| 20260902224934 | 93 | 259 | 0.0 | 0.0 | 0.00 | 0.00 | 0.00 | 48 | 1021.7 |
| 20260902224433 | 93 | 278 | 0.0 | 0.0 | 0.00 | 0.00 | 0.00 | 48 | 1021.7 |
| 20260902223930 | 93 | 278 | 0.0 | 0.0 | 0.00 | 0.00 | 0.00 | 46 | 1021.7 |
| 20260902223425 | 94 | 278 | 0.0 | 0.0 | 0.00 | 0.00 | 0.00 | 46 | 1021.6 |
| 20260902222924 | 94 | 278 | 0.0 | 0.0 | 0.00 | 0.00 | 0.00 | 48 | 1021.9 |
| 20260902222423 | 94 | 270 | 0.0 | 0.0 | 0.00 | 0.00 | 0.00 | 45 | 1021.8 |
| 20260902221917 | 94 | 303 | 0.0 | 0.0 | 0.00 | 0.00 | 0.00 | 47 | 1021.9 |
| 20260902221416 | 94 | 279 | 0.0 | 0.0 | 0.00 | 0.00 | 0.00 | 48 | 1022.0 |
| 20260902220911 | 93 | 278 | 0.0 | 0.0 | 0.00 | 0.00 | 0.00 | 47 | 1021.8 |
| 20260902220406 | 93 | 278 | 0.0 | 0.0 | 0.00 | 0.00 | 0.00 | 50 | 1021.7 |
| 20260902215901 | 93 | 278 | 0.0 | 0.0 | 0.00 | 0.00 | 0.00 | 49 | 1021.8 |
| 20260902215356 | 93 | 278 | 0.0 | 0.0 | 0.00 | 0.00 | 0.00 | 48 | 1021.8 |
| 20260902214852 | 94 | 278 | 0.0 | 0.0 | 0.00 | 0.00 | 0.00 | 47 | 1022.0 |
| 20260902214351 | 94 | 278 | 0.0 | 0.0 | 0.00 | 0.00 | 0.00 | 46 | 1021.8 |
| 20260902213846 | 95 | 278 | 0.0 | 0.0 | 0.00 | 0.00 | 0.00 | 45 | 1021.9 |
| 20260902213342 | 95 | 275 | 0.0 | 0.0 | 0.00 | 0.00 | 0.00 | 43 | 1021.9 |
| 20260902212840 | 96 | 304 | 0.0 | 0.0 | 0.00 | 0.00 | 0.00 | 45 | 1021.9 |
| 20260902212337 | 97 | 324 | 1.0 | 2.0 | 0.00 | 0.00 | 0.00 | 42 | 1021.7 |
| 20260902211833 | 96 | 246 | 0.0 | 0.0 | 0.00 | 0.00 | 0.00 | 41 | 1022.0 |
| 20260902211329 | 96 | 246 | 0.0 | 0.0 | 0.00 | 0.00 | 0.00 | 42 | 1022.1 |
| 20260902210824 | 95 | 205 | 0.0 | 0.0 | 0.00 | 0.00 | 0.00 | 42 | 1022.0 |
| 20260902210323 | 95 | 273 | 0.0 | 0.0 | 0.00 | 0.00 | 0.00 | 46 | 1022.2 |
| 20260902205821 | 95 | 300 | 0.0 | 0.0 | 0.00 | 0.00 | 0.00 | 47 | 1022.2 |
| 20260902205316 | 94 | 300 | 0.0 | 0.0 | 0.00 | 0.00 | 0.00 | 47 | 1022.3 |
| 20260902204812 | 94 | 300 | 0.0 | 0.0 | 0.00 | 0.00 | 0.00 | 46 | 1022.2 |
| 20260902204307 | 95 | 300 | 0.0 | 0.0 | 0.00 | 0.00 | 0.00 | 44 | 1022.4 |
| 20260902203802 | 96 | 300 | 0.0 | 0.0 | 0.00 | 0.00 | 0.00 | 43 | 1022.4 |
| 20260902203257 | 96 | 257 | 0.0 | 0.0 | 0.00 | 0.00 | 0.00 | 41 | 1022.5 |
| 20260902202751 | 96 | 226 | 2.0 | 2.0 | 0.00 | 0.00 | 0.00 | 40 | 1022.3 |
| 20260902202248 | 96 | 210 | 0.0 | 0.0 | 0.00 | 0.00 | 0.00 | 43 | 1022.3 |
| 20260902201744 | 96 | 300 | 0.0 | 0.0 | 0.00 | 0.00 | 0.00 | 45 | 1022.5 |
| 20260902201244 | 95 | 302 | 0.0 | 0.0 | 0.00 | 0.00 | 0.00 | 45 | 1022.5 |
| 20260902200739 | 95 | 250 | 0.0 | 0.0 | 0.00 | 0.00 | 0.00 | 46 | 1022.3 |
| 20260902200234 | 94 | 239 | 0.0 | 0.0 | 0.00 | 0.00 | 0.00 | 45 | 1022.6 |
| 20260902195730 | 93 | 262 | 0.0 | 0.0 | 0.00 | 0.00 | 0.00 | 49 | 1023.0 |
| 20260902195228 | 94 | 262 | 0.0 | 0.0 | 0.00 | 0.00 | 0.00 | 48 | 1022.7 |
| 20260902194723 | 94 | 262 | 0.0 | 0.0 | 0.00 | 0.00 | 0.00 | 48 | 1022.9 |
| 20260902194218 | 94 | 261 | 0.0 | 0.0 | 0.00 | 0.00 | 0.00 | 47 | 1023.0 |
| 20260902193714 | 95 | 261 | 0.0 | 0.0 | 0.00 | 0.00 | 0.00 | 45 | 1023.0 |
| 20260902193209 | 95 | 261 | 0.0 | 0.0 | 0.00 | 0.00 | 0.00 | 46 | 1023.1 |
| 20260902192707 | 95 | 261 | 0.0 | 0.0 | 0.00 | 0.00 | 0.00 | 45 | 1023.1 |
| 20260902192206 | 95 | 252 | 0.0 | 0.0 | 0.00 | 0.00 | 0.00 | 45 | 1023.3 |
| 20260902191701 | 96 | 191 | 2.0 | 3.0 | 0.00 | 0.00 | 0.00 | 43 | 1023.1 |
| 20260902191155 | 96 | 231 | 0.0 | 0.0 | 0.00 | 0.00 | 0.00 | 43 | 1023.4 |
| 20260902190651 | 95 | 301 | 0.0 | 0.0 | 0.00 | 0.00 | 0.00 | 45 | 1023.3 |
| 20260902190146 | 94 | 263 | 0.0 | 0.0 | 0.00 | 0.00 | 0.00 | 45 | 1023.3 |
| 20260902185642 | 94 | 293 | 0.0 | 0.0 | 0.00 | 0.00 | 0.00 | 49 | 1023.5 |
| 20260902185138 | 94 | 281 | 0.0 | 0.0 | 0.00 | 0.00 | 0.00 | 49 | 1023.5 |
| 20260902184638 | 94 | 281 | 0.0 | 0.0 | 0.00 | 0.00 | 0.00 | 48 | 1023.7 |
| 20260902184133 | 94 | 240 | 0.0 | 0.0 | 0.00 | 0.00 | 0.00 | 46 | 1023.7 |
| 20260902183629 | 96 | 288 | 0.0 | 0.0 | 0.00 | 0.00 | 0.00 | 46 | 1023.8 |
| 20260902183126 | 96 | 252 | 0.0 | 0.0 | 0.00 | 0.00 | 0.00 | 44 | 1023.8 |
| 20260902182621 | 96 | 195 | 0.0 | 0.0 | 0.00 | 0.00 | 0.00 | 44 | 1023.9 |
| 20260902182118 | 95 | 219 | 0.0 | 0.0 | 0.00 | 0.00 | 0.00 | 45 | 1023.9 |
| 20260902181614 | 94 | 265 | 0.0 | 0.0 | 0.00 | 0.00 | 0.00 | 46 | 1023.8 |
| 20260902181113 | 94 | 253 | 0.0 | 0.0 | 0.00 | 0.00 | 0.00 | 47 | 1023.9 |
| 20260902180613 | 94 | 260 | 0.0 | 0.0 | 0.00 | 0.00 | 0.00 | 47 | 1024.1 |
| 20260902180109 | 94 | 175 | 1.0 | 2.0 | 0.00 | 0.00 | 0.00 | 46 | 1024.0 |
| 20260902175608 | 95 | 288 | 0.0 | 0.0 | 0.00 | 0.00 | 0.00 | 46 | 1024.2 |
| 20260902175104 | 94 | 289 | 0.0 | 0.0 | 0.00 | 0.00 | 0.00 | 48 | 1024.3 |
| 20260902174601 | 94 | 289 | 0.0 | 0.0 | 0.00 | 0.00 | 0.00 | 49 | 1024.1 |
| 20260902174055 | 94 | 289 | 0.0 | 0.0 | 0.00 | 0.00 | 0.00 | 48 | 1024.3 |
| 20260902173550 | 94 | 279 | 0.0 | 0.0 | 0.00 | 0.00 | 0.00 | 47 | 1024.3 |
| 20260902173045 | 95 | 333 | 0.0 | 0.0 | 0.00 | 0.00 | 0.00 | 47 | 1024.3 |
| 20260902172545 | 94 | 218 | 2.0 | 7.0 | 0.00 | 0.00 | 0.00 | 47 | 1024.3 |
| 20260902172040 | 94 | 294 | 0.0 | 0.0 | 0.00 | 0.00 | 0.00 | 48 | 1024.4 |
| 20260902171536 | 94 | 292 | 0.0 | 0.0 | 0.00 | 0.00 | 0.00 | 49 | 1024.5 |
| 20260902171031 | 95 | 302 | 0.0 | 0.0 | 0.00 | 0.00 | 0.00 | 49 | 1024.6 |
| 20260902170526 | 95 | 293 | 0.0 | 0.0 | 0.00 | 0.00 | 0.00 | 49 | 1024.8 |
| 20260902170022 | 95 | 192 | 0.0 | 0.0 | 0.00 | 0.00 | 0.00 | 46 | 1024.8 |
| 20260902165521 | 95 | 286 | 0.0 | 0.0 | 0.00 | 0.00 | 0.00 | 47 | 1024.9 |
| 20260902165016 | 95 | 298 | 0.0 | 0.0 | 0.00 | 0.00 | 0.00 | 46 | 1025.0 |
| 20260902164511 | 94 | 299 | 0.0 | 0.0 | 0.00 | 0.00 | 0.00 | 49 | 1024.7 |
| 20260902164010 | 93 | 299 | 0.0 | 0.0 | 0.00 | 0.00 | 0.00 | 49 | 1024.8 |
| 20260902163506 | 94 | 288 | 0.0 | 0.0 | 0.00 | 0.00 | 0.00 | 50 | 1024.9 |
| 20260902163004 | 94 | 282 | 0.0 | 0.0 | 0.00 | 0.00 | 0.00 | 51 | 1025.0 |
| 20260902162458 | 93 | 270 | 0.0 | 0.0 | 0.00 | 0.00 | 0.00 | 54 | 1025.1 |
| 20260902161953 | 93 | 251 | 0.0 | 0.0 | 0.00 | 0.00 | 0.00 | 52 | 1025.4 |
| 20260902161448 | 93 | 296 | 0.0 | 0.0 | 0.00 | 0.00 | 0.00 | 53 | 1025.2 |
| 20260902160944 | 93 | 263 | 0.0 | 0.0 | 0.00 | 0.00 | 0.00 | 55 | 1025.4 |
| 20260902160439 | 92 | 277 | 0.0 | 0.0 | 0.00 | 0.00 | 0.00 | 57 | 1025.1 |
| 20260902155937 | 92 | 293 | 0.0 | 0.0 | 0.00 | 0.00 | 0.00 | 57 | 1025.3 |
| 20260902155433 | 91 | 303 | 0.0 | 0.0 | 0.00 | 0.00 | 0.00 | 58 | 1025.4 |
| 20260902154926 | 91 | 272 | 0.0 | 0.0 | 0.00 | 0.00 | 0.00 | 57 | 1025.4 |
| 20260902154422 | 91 | 302 | 0.0 | 0.0 | 0.00 | 0.00 | 0.00 | 58 | 1025.4 |
| 20260902153921 | 91 | 301 | 0.0 | 0.0 | 0.00 | 0.00 | 0.00 | 59 | 1025.6 |
| 20260902153420 | 91 | 258 | 0.0 | 0.0 | 0.00 | 0.00 | 0.00 | 60 | 1025.5 |
| 20260902152916 | 90 | 227 | 0.0 | 0.0 | 0.00 | 0.00 | 0.00 | 60 | 1025.4 |
| 20260902152412 | 89 | 290 | 0.0 | 0.0 | 0.00 | 0.00 | 0.00 | 61 | 1025.5 |
| 20260902151907 | 89 | 290 | 0.0 | 0.0 | 0.00 | 0.00 | 0.00 | 61 | 1025.7 |
| 20260902151402 | 89 | 283 | 0.0 | 0.0 | 0.00 | 0.00 | 0.00 | 62 | 1025.5 |
| 20260902150857 | 89 | 283 | 0.0 | 0.0 | 0.00 | 0.00 | 0.00 | 62 | 1025.4 |
| 20260902150353 | 88 | 291 | 0.0 | 0.0 | 0.00 | 0.00 | 0.00 | 63 | 1025.7 |
| 20260902145852 | 88 | 291 | 0.0 | 0.0 | 0.00 | 0.00 | 0.00 | 63 | 1025.6 |
| 20260902145348 | 88 | 282 | 0.0 | 0.0 | 0.00 | 0.00 | 0.00 | 63 | 1025.6 |
| 20260902144843 | 88 | 266 | 0.0 | 0.0 | 0.00 | 0.00 | 0.00 | 64 | 1025.4 |
| 20260902144339 | 87 | 265 | 0.0 | 0.0 | 0.00 | 0.00 | 0.00 | 64 | 1025.5 |
| 20260902143833 | 87 | 265 | 0.0 | 0.0 | 0.00 | 0.00 | 0.00 | 65 | 1025.4 |
| 20260902143328 | 86 | 270 | 0.0 | 0.0 | 0.00 | 0.00 | 0.00 | 67 | 1025.4 |
| 20260902142824 | 86 | 290 | 0.0 | 0.0 | 0.00 | 0.00 | 0.00 | 67 | 1025.5 |
| 20260902142320 | 86 | 218 | 0.0 | 0.0 | 0.00 | 0.00 | 0.00 | 69 | 1025.4 |
| 20260902141815 | 85 | 288 | 0.0 | 0.0 | 0.00 | 0.00 | 0.00 | 69 | 1025.4 |
| 20260902141311 | 84 | 284 | 0.0 | 0.0 | 0.00 | 0.00 | 0.00 | 72 | 1025.5 |
| 20260902140810 | 84 | 277 | 0.0 | 0.0 | 0.00 | 0.00 | 0.00 | 73 | 1025.5 |
| 20260902140305 | 83 | 282 | 0.0 | 0.0 | 0.00 | 0.00 | 0.00 | 75 | 1025.6 |
| 20260902135804 | 83 | 273 | 0.0 | 0.0 | 0.00 | 0.00 | 0.00 | 75 | 1025.3 |
| 20260902135300 | 83 | 272 | 0.0 | 0.0 | 0.00 | 0.00 | 0.00 | 75 | 1025.3 |
| 20260902134759 | 82 | 281 | 0.0 | 0.0 | 0.00 | 0.00 | 0.00 | 76 | 1025.5 |
| 20260902134255 | 81 | 262 | 0.0 | 0.0 | 0.00 | 0.00 | 0.00 | 78 | 1025.5 |
| 20260902133750 | 81 | 262 | 0.0 | 0.0 | 0.00 | 0.00 | 0.00 | 79 | 1025.5 |
| 20260902133249 | 81 | 262 | 0.0 | 0.0 | 0.00 | 0.00 | 0.00 | 80 | 1025.6 |
| 20260902132745 | 80 | 262 | 0.0 | 0.0 | 0.00 | 0.00 | 0.00 | 79 | 1025.3 |
| 20260902132241 | 80 | 262 | 0.0 | 0.0 | 0.00 | 0.00 | 0.00 | 81 | 1025.3 |
| 20260902131736 | 80 | 262 | 0.0 | 0.0 | 0.00 | 0.00 | 0.00 | 82 | 1025.4 |
| 20260902131232 | 79 | 262 | 0.0 | 0.0 | 0.00 | 0.00 | 0.00 | 82 | 1025.4 |
| 20260902130726 | 79 | 262 | 0.0 | 0.0 | 0.00 | 0.00 | 0.00 | 82 | 1025.5 |
| 20260902130222 | 78 | 262 | 0.0 | 0.0 | 0.00 | 0.00 | 0.00 | 83 | 1025.2 |
| 20260902125717 | 78 | 262 | 0.0 | 0.0 | 0.00 | 0.00 | 0.00 | 84 | 1025.5 |
| 20260902125214 | 77 | 262 | 0.0 | 0.0 | 0.00 | 0.00 | 0.00 | 83 | 1025.2 |
| 20260902124710 | 77 | 262 | 0.0 | 0.0 | 0.00 | 0.00 | 0.00 | 86 | 1025.3 |
| 20260902124210 | 76 | 262 | 0.0 | 0.0 | 0.00 | 0.00 | 0.00 | 86 | 1025.3 |
| 20260902123705 | 76 | 262 | 0.0 | 0.0 | 0.00 | 0.00 | 0.00 | 87 | 1025.3 |
| 20260902123201 | 76 | 262 | 0.0 | 0.0 | 0.00 | 0.00 | 0.00 | 87 | 1025.3 |
| 20260902122700 | 76 | 262 | 0.0 | 0.0 | 0.00 | 0.00 | 0.00 | 87 | 1025.2 |
| 20260902122156 | 75 | 262 | 0.0 | 0.0 | 0.00 | 0.00 | 0.00 | 87 | 1025.0 |
| 20260902121650 | 75 | 262 | 0.0 | 0.0 | 0.00 | 0.00 | 0.00 | 87 | 1025.1 |
| 20260902121145 | 75 | 262 | 0.0 | 0.0 | 0.00 | 0.00 | 0.00 | 88 | 1025.0 |
| 20260902120641 | 75 | 262 | 0.0 | 0.0 | 0.00 | 0.00 | 0.00 | 88 | 1025.0 |
| 20260902120137 | 75 | 262 | 0.0 | 0.0 | 0.00 | 0.00 | 0.00 | 88 | 1025.0 |
| 20260902115632 | 75 | 262 | 0.0 | 0.0 | 0.00 | 0.00 | 0.00 | 88 | 1025.1 |
| 20260902115128 | 75 | 262 | 0.0 | 0.0 | 0.00 | 0.00 | 0.00 | 87 | 1024.8 |
| 20260902114623 | 75 | 262 | 0.0 | 0.0 | 0.00 | 0.00 | 0.00 | 88 | 1024.8 |
| 20260902114118 | 75 | 262 | 0.0 | 0.0 | 0.00 | 0.00 | 0.00 | 88 | 1025.0 |
| 20260902113614 | 75 | 262 | 0.0 | 0.0 | 0.00 | 0.00 | 0.00 | 88 | 1024.7 |
| 20260902113108 | 75 | 262 | 0.0 | 0.0 | 0.00 | 0.00 | 0.00 | 87 | 1024.7 |
| 20260902112603 | 75 | 262 | 0.0 | 0.0 | 0.00 | 0.00 | 0.00 | 87 | 1024.9 |
| 20260902112100 | 75 | 262 | 0.0 | 0.0 | 0.00 | 0.00 | 0.00 | 87 | 1024.8 |
| 20260902111556 | 75 | 262 | 0.0 | 0.0 | 0.00 | 0.00 | 0.00 | 87 | 1024.9 |
| 20260902111051 | 75 | 262 | 0.0 | 0.0 | 0.00 | 0.00 | 0.00 | 87 | 1024.7 |
| 20260902110548 | 75 | 262 | 0.0 | 0.0 | 0.00 | 0.00 | 0.00 | 87 | 1024.7 |
| 20260902110043 | 75 | 262 | 0.0 | 0.0 | 0.00 | 0.00 | 0.00 | 87 | 1024.7 |
| 20260902105537 | 75 | 262 | 0.0 | 0.0 | 0.00 | 0.00 | 0.00 | 87 | 1024.5 |
| 20260902105032 | 75 | 262 | 0.0 | 0.0 | 0.00 | 0.00 | 0.00 | 87 | 1024.5 |
| 20260902104527 | 75 | 262 | 0.0 | 0.0 | 0.00 | 0.00 | 0.00 | 87 | 1024.6 |
| 20260902104027 | 75 | 262 | 0.0 | 0.0 | 0.00 | 0.00 | 0.00 | 87 | 1024.5 |
| 20260902103523 | 75 | 262 | 0.0 | 0.0 | 0.00 | 0.00 | 0.00 | 87 | 1024.6 |
| 20260902103018 | 75 | 262 | 0.0 | 0.0 | 0.00 | 0.00 | 0.00 | 88 | 1024.6 |
| 20260902102515 | 75 | 262 | 0.0 | 0.0 | 0.00 | 0.00 | 0.00 | 87 | 1024.2 |
| 20260902102011 | 75 | 262 | 0.0 | 0.0 | 0.00 | 0.00 | 0.00 | 87 | 1024.3 |
| 20260902101506 | 75 | 262 | 0.0 | 0.0 | 0.00 | 0.00 | 0.00 | 87 | 1024.2 |
| 20260902101005 | 75 | 262 | 0.0 | 0.0 | 0.00 | 0.00 | 0.00 | 87 | 1024.4 |
| 20260902100500 | 75 | 262 | 0.0 | 0.0 | 0.00 | 0.00 | 0.00 | 87 | 1024.4 |
| 20260902100000 | 75 | 262 | 0.0 | 0.0 | 0.00 | 0.00 | 0.00 | 87 | 1024.4 |
| 20260902095454 | 75 | 262 | 0.0 | 0.0 | 0.00 | 0.00 | 0.00 | 87 | 1024.3 |
| 20260902094954 | 75 | 262 | 0.0 | 0.0 | 0.00 | 0.00 | 0.00 | 86 | 1024.2 |
| 20260902094449 | 75 | 262 | 0.0 | 0.0 | 0.00 | 0.00 | 0.00 | 86 | 1024.3 |
| 20260902093944 | 75 | 262 | 0.0 | 0.0 | 0.00 | 0.00 | 0.00 | 86 | 1024.0 |
| 20260902093439 | 76 | 262 | 0.0 | 0.0 | 0.00 | 0.00 | 0.00 | 86 | 1024.0 |
| 20260902092938 | 75 | 262 | 0.0 | 0.0 | 0.00 | 0.00 | 0.00 | 86 | 1023.9 |
| 20260902092434 | 76 | 262 | 0.0 | 0.0 | 0.00 | 0.00 | 0.00 | 86 | 1023.9 |
| 20260902091934 | 76 | 262 | 0.0 | 0.0 | 0.00 | 0.00 | 0.00 | 85 | 1024.0 |
| 20260902091429 | 76 | 262 | 0.0 | 0.0 | 0.00 | 0.00 | 0.00 | 86 | 1023.7 |
| 20260902090925 | 76 | 262 | 0.0 | 0.0 | 0.00 | 0.00 | 0.00 | 85 | 1023.7 |
| 20260902090426 | 76 | 262 | 0.0 | 0.0 | 0.00 | 0.00 | 0.00 | 85 | 1024.0 |
| 20260902085924 | 76 | 262 | 0.0 | 0.0 | 0.00 | 0.00 | 0.00 | 85 | 1023.8 |
| 20260902085420 | 76 | 262 | 0.0 | 0.0 | 0.00 | 0.00 | 0.00 | 86 | 1023.8 |
| 20260902084915 | 76 | 262 | 0.0 | 0.0 | 0.00 | 0.00 | 0.00 | 85 | 1023.7 |
| 20260902084412 | 76 | 262 | 0.0 | 0.0 | 0.00 | 0.00 | 0.00 | 85 | 1023.6 |
| 20260902083907 | 76 | 262 | 0.0 | 0.0 | 0.00 | 0.00 | 0.00 | 85 | 1023.6 |
| 20260902083407 | 76 | 262 | 0.0 | 0.0 | 0.00 | 0.00 | 0.00 | 85 | 1023.6 |
| 20260902082902 | 76 | 262 | 0.0 | 0.0 | 0.00 | 0.00 | 0.00 | 85 | 1023.7 |
| 20260902082357 | 76 | 262 | 0.0 | 0.0 | 0.00 | 0.00 | 0.00 | 85 | 1023.6 |
| 20260902081854 | 77 | 262 | 0.0 | 0.0 | 0.00 | 0.00 | 0.00 | 85 | 1023.6 |
| 20260902081350 | 77 | 262 | 0.0 | 0.0 | 0.00 | 0.00 | 0.00 | 84 | 1023.6 |
| 20260902080844 | 77 | 262 | 0.0 | 0.0 | 0.00 | 0.00 | 0.00 | 84 | 1023.6 |
| 20260902080341 | 77 | 262 | 0.0 | 0.0 | 0.00 | 0.00 | 0.00 | 84 | 1023.7 |
| 20260902075840 | 77 | 262 | 0.0 | 0.0 | 0.00 | 0.00 | 0.00 | 84 | 1023.5 |
| 20260902075337 | 77 | 262 | 0.0 | 0.0 | 0.00 | 0.00 | 0.00 | 84 | 1023.5 |
| 20260902074832 | 77 | 262 | 0.0 | 0.0 | 0.00 | 0.00 | 0.00 | 84 | 1023.4 |
| 20260902074327 | 77 | 262 | 0.0 | 0.0 | 0.00 | 0.00 | 0.00 | 84 | 1023.4 |
| 20260902073822 | 77 | 262 | 0.0 | 0.0 | 0.00 | 0.00 | 0.00 | 84 | 1023.6 |
| 20260902073319 | 77 | 262 | 0.0 | 0.0 | 0.00 | 0.00 | 0.00 | 84 | 1023.5 |
| 20260902072814 | 77 | 262 | 0.0 | 0.0 | 0.00 | 0.00 | 0.00 | 84 | 1023.5 |
| 20260902072310 | 77 | 262 | 0.0 | 0.0 | 0.00 | 0.00 | 0.00 | 84 | 1023.4 |
| 20260902071806 | 77 | 262 | 0.0 | 0.0 | 0.00 | 0.00 | 0.00 | 84 | 1023.5 |
| 20260902071300 | 77 | 262 | 0.0 | 0.0 | 0.00 | 0.00 | 0.00 | 85 | 1023.4 |
| 20260902070757 | 77 | 262 | 0.0 | 0.0 | 0.00 | 0.00 | 0.00 | 85 | 1023.9 |
| 20260902070256 | 77 | 262 | 0.0 | 0.0 | 0.00 | 0.00 | 0.00 | 84 | 1023.5 |
| 20260902065755 | 77 | 262 | 0.0 | 0.0 | 0.00 | 0.00 | 0.00 | 84 | 1023.6 |
| 20260902065250 | 77 | 262 | 0.0 | 0.0 | 0.00 | 0.00 | 0.00 | 84 | 1023.6 |
| 20260902064746 | 77 | 262 | 0.0 | 0.0 | 0.00 | 0.00 | 0.00 | 84 | 1023.8 |
| 20260902064242 | 77 | 262 | 0.0 | 0.0 | 0.00 | 0.00 | 0.00 | 83 | 1023.9 |
| 20260902063738 | 78 | 262 | 0.0 | 0.0 | 0.00 | 0.00 | 0.00 | 84 | 1023.5 |
| 20260902063237 | 78 | 262 | 0.0 | 0.0 | 0.00 | 0.00 | 0.00 | 84 | 1023.6 |
| 20260902062731 | 78 | 262 | 0.0 | 0.0 | 0.00 | 0.00 | 0.00 | 84 | 1023.8 |
| 20260902062226 | 78 | 262 | 0.0 | 0.0 | 0.00 | 0.00 | 0.00 | 84 | 1023.7 |
| 20260902061725 | 78 | 262 | 0.0 | 0.0 | 0.00 | 0.00 | 0.00 | 83 | 1023.7 |
| 20260902061221 | 78 | 263 | 0.0 | 0.0 | 0.00 | 0.00 | 0.00 | 83 | 1023.8 |
| 20260902060718 | 78 | 263 | 0.0 | 0.0 | 0.00 | 0.00 | 0.00 | 83 | 1023.9 |
| 20260902060213 | 78 | 263 | 0.0 | 0.0 | 0.00 | 0.00 | 0.00 | 82 | 1023.5 |
| 20260902055709 | 78 | 263 | 0.0 | 0.0 | 0.00 | 0.00 | 0.00 | 81 | 1023.8 |
| 20260902055205 | 78 | 263 | 0.0 | 0.0 | 0.00 | 0.00 | 0.00 | 81 | 1023.8 |
| 20260902054700 | 78 | 263 | 0.0 | 0.0 | 0.00 | 0.00 | 0.00 | 81 | 1023.7 |
| 20260902054155 | 78 | 263 | 0.0 | 0.0 | 0.00 | 0.00 | 0.00 | 81 | 1023.9 |
| 20260902053651 | 79 | 263 | 0.0 | 0.0 | 0.00 | 0.00 | 0.00 | 81 | 1023.8 |